Regional Weather Roundup
Issued by NWS

Home | Current Version | Previous Version | Text Only | Print | Product List | Glossary Off
Versions: 1 2 3 4 5 6 7 8 9 10 11 12 13 14 15 16 17 18 19 20 21 22 23 24 25 26 27 28 29 30 31 32 33 34 35 36 37 38 39 40 41 42 43 44 45 46 47 48 49 50

000
ASUS43 KMPX 240610
RWRMN
WEATHER ROUNDUP FOR MINNESOTA
NATIONAL WEATHER SERVICE TWIN CITIES/CHANHASSEN MN
1200 AM CST MON NOV 24 2014


NOTE: "FAIR" INDICATES FEW OR NO CLOUDS BELOW 12,000 FEET WITH NO
SIGNIFICANT WEATHER AND/OR OBSTRUCTIONS TO VISIBILITY. N/A MEANS
CURRENT SKY AND/OR WEATHER CONDITIONS ARE NOT AVAILABLE.

MNZ060>063-068>070-240700-
   Twin Cities Metro

CITY           SKY/WX    TMP DP  RH WIND       PRES   REMARKS
TWIN CITIES    LGT SNOW  32  29  88 NW14      29.34S FOG     WCI  22
6HR MIN TEMP:  32; 6HR MAX TEMP:  39; 6HR PCP:  0.02;

ST PAUL        LGT SNOW  32  30  92 NW17      29.34F FOG     WCI  21
CRYSTAL        LGT SNOW  33  29  85 NW14      29.33F FOG     WCI  23
BLAINE         CLOUDY    34  34 100 NW14      29.33F WCI  24
LAKEVILLE      MIX PCPN  30  28  93 NW16      29.32F WCI  19
EDEN PRAIRIE   LGT SNOW  32  28  85 NW13      29.33F FOG     WCI  22
6HR MIN TEMP:  32; 6HR MAX TEMP:  39; 6HR PCP: TRACE;

SOUTH ST PAUL  CLOUDY    33  32  95 NW10G17   29.33S FOG     WCI  25
LAKE ELMO      CLOUDY    34  32  93 NW14G20   29.32S WCI  24
$$
MNZ001>005-007-008-013>017-022>024-027-028-240700-
   Northwest Minnesota

CITY           SKY/WX    TMP DP  RH WIND       PRES   REMARKS
BEMIDJI        CLOUDY    19  18  94 W15G21    29.44S WCI   5
HALLOCK        CLOUDY    14  10  85 NW22G32   29.60R WCI  -4
ROSEAU         CLOUDY    19  16  86 NW15      29.50S HAZE    WCI   5
WARROAD        LGT SNOW  19  16  86 NW17G23   29.47S WCI   4
THIEF RVR FALL CLOUDY    16  12  86 NW21      29.52S WCI  -2
CROOKSTON      LGT SNOW  16  12  86 N24G30    29.58R WCI  -3
FOSSTON        CLOUDY    16  12  86 NW15      29.51R FOG     WCI   1
DETROIT LAKES  CLOUDY    18  18 100 NW21G26   29.50S WCI   1
MOORHEAD       MIX PCPN  18  18 100 NW20      29.58S WCI   1
PARK RAPIDS    CLOUDY    20  17  88 NW17      29.42S WCI   5
MAHNOMEN       CLOUDY    16  14  90 NW17      29.51R FOG     WCI   0
$$
MNZ006-009>011-018-025>026-240700-
   North Central Minnesota

CITY           SKY/WX    TMP DP  RH WIND       PRES   REMARKS
BAUDETTE       CLOUDY    25  23  92 NW10      29.42S WCI  15
FLAG ISLAND    DRIZZLE   27  25  93 NW20      29.44R WCI  13
INTL FALLS     LGT SNOW  33  31  92 NW7       29.36F FOG     WCI  27
6HR MIN TEMP:  33; 6HR MAX TEMP:  34; 6HR PCP: TRACE;

WASKISH        MIX PCPN  25  23  93 W13       29.42S WCI  13
BIG FORK       MIX PCPN  30  28  93 NW6       29.37S WCI  24
LONGVILLE      CLOUDY    25  23  93 W9        29.39S WCI  15
GRAND RAPIDS   CLOUDY    32  28  86 NW20G25   29.34S WCI  20
CRANE LAKE     LGT SNOW  30  30 100 N3        29.35F
ORR            MIX PCPN  32  30  93 NW5       29.31F WCI  27
COOK           LGT SNOW  32  32 100 NW3       29.33S
WALKER         CLOUDY    20  18  92 NW8G17    29.42S WCI  10
$$
MNZ012-019>021-037-240700-
   Northeast Minnesota

CITY           SKY/WX    TMP DP  RH WIND       PRES   REMARKS
DULUTH         LGT SNOW  35  32  88 N13       29.26F FOG     WCI  26
6HR MIN TEMP:  35; 6HR MAX TEMP:  37; 6HR PCP:  0.03;

ELY            LGT SNOW  32  32 100 NW5       29.29F WCI  27
HIBBING        CLOUDY    35  32  88 N12       29.31F FOG     WCI  27
EVELETH        LGT SNOW  34  32  93 N8        29.30F WCI  27
DULUTH HARBOR  DRIZZLE   37  36  93 CALM      29.29F
TWO HARBORS    DRIZZLE   37  34  87 N6        29.24F
SILVER BAY     DRIZZLE   37  36  93 CALM      29.24F
GRAND MARAIS     N/A     41  35  79 N13G22    29.23F
G MARAIS ARPRT CLOUDY    34  30  86 N10       29.23F FOG     WCI  26
$$
MNZ029>031-032-039>041-046>048-054>057-064-240700-
   West Central Minnesota

CITY           SKY/WX    TMP DP  RH WIND       PRES   REMARKS
FERGUS FALLS   CLOUDY    18  16  93 N21G30    29.55R WCI   1
WHEATON        CLOUDY    18  12  79 NW22G33   29.57S WCI   0
MORRIS           N/A     21  18  86 NW24G35   29.49S WCI   4
ALEXANDRIA     CLOUDY    23  20  88 NW18G26   29.44R WCI   9
ELBOW LAKE       N/A     19  18  95 NW23G29   29.50R WCI   2
WADENA         CLOUDY    19  18  93 NW15G22   29.44R WCI   5
GLENWOOD       CLOUDY    25  21  86 NW24G30   29.43S WCI   9
APPLETON       CLOUDY    25  21  86 NW26      29.51F WCI   9
BENSON         CLOUDY    21  21 100 N21G28    29.48S WCI   6
ORTONVILLE     CLOUDY    21  16  79 NW24G30   29.53S WCI   4
MADISON        CLEAR     27  21  80 NW26G33   29.53S WCI  11
WILLMAR        CLOUDY    28  25  86 NW20G30   29.44S WCI  15
$$
MNZ033>034-036-042>043-049>051-058-059-240700-
   Central Minnesota

CITY           SKY/WX    TMP DP  RH WIND       PRES   REMARKS
ST CLOUD       CLOUDY    32  25  75 NW17G25   29.36F WCI  21
6HR MIN TEMP:  32; 6HR MAX TEMP:  38;

SAUK CENTRE    CLOUDY    27  25  93 NW21      29.41S WCI  13
PAYNESVILLE    CLOUDY    26  24  91 W13G21    29.41S WCI  15
AITKIN         CLOUDY    36  28  75 NW9       29.33S
PINE RIVER     CLOUDY    28  25  86 NW10G16   29.43S WCI  19
BRAINERD       CLOUDY    31  28  89 NW9       29.37F WCI  23
STAPLES        CLOUDY    23  19  86 NW12      29.41R WCI  12
LONG PRAIRIE   CLOUDY    25  23  93 W18G24    29.41S WCI  11
LITTLE FALLS   CLOUDY    32  27  80 NW14G20   29.38F WCI  22
LITCHFIELD     CLOUDY    30  27  86 NW16G23   29.40S WCI  19
BUFFALO        CLOUDY    32  26  78 W13G18    29.36F WCI  22
MAPLE LAKE     CLOUDY    32  28  84 W13G20    29.37F WCI  22
$$
MNZ037-044-045-052-053-240700-
   East Central Minnesota

CITY           SKY/WX    TMP DP  RH WIND       PRES   REMARKS
PRINCETON      CLOUDY    34  28  80 W14       29.35S WCI  24
MORA           LGT SNOW  32  30  93 NW9G16    29.33F WCI  24
CAMBRIDGE      LGT SNOW  34  27  75 NW9       29.31F WCI  26
RUSH CITY      CLOUDY    34  33  94 NW8G16    29.31F WCI  27
MOOSE LAKE     RAIN      34  32  93 NW8       29.28F WCI  27
HINCKLEY       RAIN      36  36 100 NW8       29.30F
CLOQUET        LGT SNOW  34  34 100 NW12      29.28F WCI  25
MCGREGOR       CLOUDY    34  32  93 NW10G17   29.33S WCI  26
$$
MNZ071>073-080-081-089-090-097-098-240700-
   Southwest Minnesota

CITY           SKY/WX    TMP DP  RH WIND       PRES   REMARKS
MONTEVIDEO     CLOUDY    23  21  93 N24G30    29.49F WCI   7
GRANITE FALLS  CLOUDY    24  22  93 W21G26    29.50F FOG     WCI   9
CANBY          CLOUDY    23  18  81 NW23G29   29.53S WCI   7
MARSHALL       CLOUDY    23  18  80 NW28      29.49F WCI   6
REDWOOD FALLS  CLOUDY    26  22  84 NW24G32   29.45S WCI  11
OLIVIA         CLOUDY    28  27  93 NW21G28   29.43F WCI  15
PIPESTONE      CLOUDY    23  18  80 NW20G28   29.49S WCI   8
WINDOM         CLOUDY    25  21  86 NW21G33   29.43F WCI  10
WORTHINGTON    CLOUDY    27  19  74 NW28      29.46S WCI  11
JACKSON        CLOUDY    28  23  80 NW23G35   29.43S WCI  14
TRACY          CLOUDY    25  22  91 NW28G35   29.48S WCI   8
SLAYTON        CLOUDY    24  21  88 NW25G32   29.47S WCI   8
$$
MNZ065>067-074>077-082>085-091>093-240700-
   South Central Minnesota

CITY           SKY/WX    TMP DP  RH WIND       PRES   REMARKS
MANKATO        CLOUDY    30  23  74 NW21G29   29.37F WCI  17
NEW ULM        CLOUDY    27  25  93 NW24G33   29.41S WCI  12
ST JAMES       CLOUDY    28  25  86 W26G35    29.43S WCI  13
FAIRMONT       CLOUDY    28  19  69 NW29G36   29.40F WCI  13
GLENCOE        CLOUDY    32  28  84 W22       29.37F WCI  19
FARIBAULT      CLOUDY    32  28  86 NW14G20   29.34F WCI  22
OWATONNA       LGT SNOW  32  28  86 NW15      29.33F WCI  22
WASECA         CLOUDY    32  27  80 NW26G33   29.37S WCI  18
ALBERT LEA     LGT SNOW  30  28  93 NW17G30   29.32F WCI  18
$$
MNZ078>079-086>088-094>096-240700-
   Southeast Minnesota

CITY           SKY/WX    TMP DP  RH WIND       PRES   REMARKS
ROCHESTER      LGT RAIN  33  31  92 NW25G33   29.26F WCI  20
6HR MIN TEMP:  33; 6HR MAX TEMP:  41; 6HR PCP:  0.08;

RED WING         N/A     37  36  93 NW10      29.28F
STANTON        LGT SNOW  33  31  92 NW14      29.31F WCI  23
DODGE CENTER   MIX PCPN  34  32  93 NW16G29   29.28F WCI  23
WINONA         DRIZZLE   37  36  93 NW15G24   29.23F
AUSTIN         CLOUDY    32  30  93 NW20G30   29.30S WCI  20
PRESTON        CLOUDY    34  33  96 NW16G25   29.24F WCI  24
$$
ABBREVIATIONS USED IN REMARKS
   TC - TEMPERATURES IN CELSIUS
  WCI - WIND CHILL INDEX
   HX - HEAT INDEX
  VSB - VISIBILITY
$$



USA.gov is the U.S. government's official web portal to all federal, state and local government web resources and services.